Marianna, WV

6:09 PM EDT on October 01, 2016 (GMT -0400)
Pineville

Weather History for KI16 - March, 2014

Change the Weather History Date:

Saturday, March 1, 2014

  Actual Average (KBKW) Record (KBKW)
Temperature  
Mean Temperature 42 °F 38 °F  
Max Temperature 57 °F 47 °F 70 °F (1972)
Min Temperature 27 °F 28 °F 4 °F (1960)
Degree Days  
Heating Degree Days 23 27  
Month to date heating degree days 27  
Since 1 July heating degree days 4028  
Cooling Degree Days 0 0  
Month to date cooling degree days 0  
Year to date cooling degree days 0  
Moisture  
Dew Point 28 °F    
Average Humidity 67    
Maximum Humidity 89    
Minimum Humidity 39    
Precipitation  
Precipitation 0.00 in 0.11 in 1.15 in (1954)
Month to date precipitation 0.11  
Year to date precipitation 5.68  
Snow  
Snow 0.00 in - - ()
Month to date snowfall  
Since 1 September snowfall  
Snow Depth -    
Sea Level Pressure  
Sea Level Pressure 30.21 in    
Wind  
Wind Speed - (North)    
Max Wind Speed -    
Max Gust Speed -    
Visibility 10 miles    
Events      
T = Trace of Precipitation, MM = Missing Value Source: NWS Daily Summary

Daily Weather History Graph

Daily Weather History Graph

Search for Another Location

Airport or City:

Trip Planner

Search our weather history database for the weather conditions in past years. The results will help you decide how hot, cold, wet, or windy it might be!

Date:

Astronomy

Mar. 01, 2014 Rise Set
Actual Time 6:57 AM EST 6:20 PM EST
Civil Twilight 6:31 AM EST 6:46 PM EST
Nautical Twilight 6:01 AM EST 7:16 PM EST
Astronomical Twilight 5:30 AM EST 7:46 PM EST
Moon 6:51 AM EST 7:04 PM EST
Length of Visible Light 12h 14m
Length of Day
11h 22m
New Moon, 0% of the Moon is Illuminated
Mar 1
New Moon
Mar 8
First Quarter
Mar 16
Full
Mar 23
Last Quarter
Mar 30
New

Hourly Weather History & Observations

Time (EST) Temp. Dew Point Humidity Pressure Visibility Wind Dir Wind Speed Gust Speed Precip Events Conditions
12:15 AM 28.9 °F 23.7 °F 81% 30.19 in 10.0 mi North - - N/A   Clear
12:35 AM 28.6 °F 23.7 °F 82% 30.19 in 10.0 mi North - - N/A   Scattered Clouds
12:55 AM 29.7 °F 23.7 °F 79% 30.20 in 10.0 mi North - - N/A   Overcast
1:15 AM 29.8 °F 23.7 °F 78% 30.20 in 10.0 mi North - - N/A   Overcast
1:35 AM 30.2 °F 24.3 °F 79% 30.20 in 10.0 mi North - - N/A   Overcast
1:55 AM 31.1 °F 25.0 °F 78% 30.20 in 10.0 mi North - - N/A   Overcast
2:15 AM 30.2 °F 25.2 °F 82% 30.20 in 10.0 mi North - - N/A   Scattered Clouds
2:35 AM 29.3 °F 24.6 °F 83% 30.20 in 10.0 mi North - - N/A   Scattered Clouds
2:55 AM 28.4 °F 24.3 °F 84% 30.20 in 10.0 mi North - - N/A   Scattered Clouds
3:15 AM 28.0 °F 24.1 °F 85% 30.20 in 10.0 mi North - - N/A   Clear
3:35 AM 27.9 °F 23.4 °F 83% 30.20 in 10.0 mi North - - N/A   Mostly Cloudy
4:00 AM 28.4 °F 23.0 °F 80% 30.20 in 10.0 mi North - - N/A   Overcast
4:15 AM 28.2 °F 23.9 °F 84% 30.20 in 10.0 mi North - - N/A   Scattered Clouds
4:35 AM 28.4 °F 24.1 °F 84% 30.20 in 10.0 mi North - - N/A   Mostly Cloudy
4:55 AM 29.7 °F 24.1 °F 80% 30.21 in 10.0 mi North - - N/A   Overcast
5:15 AM 29.8 °F 23.7 °F 78% 30.21 in 10.0 mi North - - N/A   Mostly Cloudy
5:35 AM 30.2 °F 24.4 °F 79% 30.22 in 10.0 mi North - - N/A   Scattered Clouds
5:55 AM 30.6 °F 25.2 °F 80% 30.23 in 10.0 mi North - - N/A   Clear
6:15 AM 31.1 °F 24.8 °F 77% 30.23 in 10.0 mi North - - N/A   Mostly Cloudy
6:35 AM 31.5 °F 24.8 °F 76% 30.24 in 10.0 mi North - - N/A   Overcast
6:55 AM 31.8 °F 24.4 °F 74% 30.25 in 10.0 mi North - - N/A   Overcast
7:15 AM 32.0 °F 24.3 °F 73% 30.25 in 10.0 mi North - - N/A   Mostly Cloudy
7:35 AM 32.0 °F 25.3 °F 76% 30.26 in 10.0 mi North - - N/A   Overcast
7:55 AM 33.1 °F 21.6 °F 63% 30.26 in 10.0 mi North - - N/A   Overcast
8:15 AM 34.0 °F 22.6 °F 63% 30.27 in 10.0 mi North - - N/A   Overcast
8:35 AM 34.9 °F 21.9 °F 59% 30.28 in 10.0 mi North - - N/A   Overcast
8:55 AM 36.0 °F 21.7 °F 56% 30.28 in 10.0 mi North - - N/A   Overcast
9:15 AM 37.8 °F 22.1 °F 53% 30.28 in 10.0 mi North - - N/A   Overcast
9:35 AM 38.3 °F 21.4 °F 51% 30.28 in 10.0 mi North - - N/A   Overcast
9:55 AM 38.8 °F 22.3 °F 51% 30.29 in 10.0 mi North - - N/A   Overcast
10:15 AM 39.6 °F 22.8 °F 51% 30.29 in 10.0 mi North - - N/A   Overcast
10:40 AM 41.2 °F 22.8 °F 48% 30.28 in 10.0 mi North - - N/A   Overcast
10:55 AM 42.1 °F 23.2 °F 47% 30.28 in 10.0 mi North - - N/A   Overcast
11:15 AM 42.8 °F 24.1 °F 48% 30.26 in 10.0 mi North - - N/A   Overcast
11:35 AM 44.6 °F 25.3 °F 47% 30.26 in 10.0 mi North - - N/A   Overcast
11:55 AM 45.9 °F 27.3 °F 48% 30.25 in 10.0 mi North - - N/A   Overcast
12:20 PM 48.0 °F 29.7 °F 49% 30.25 in 10.0 mi North - - N/A   Overcast
12:35 PM 48.2 °F 29.7 °F 49% 30.24 in 10.0 mi North - - N/A   Overcast
12:55 PM 49.1 °F 30.2 °F 48% 30.23 in 10.0 mi North - - N/A   Overcast
1:15 PM 50.7 °F 31.1 °F 47% 30.22 in 10.0 mi North - - N/A   Overcast
1:35 PM 51.6 °F 31.6 °F 46% 30.21 in 10.0 mi North - - N/A   Overcast
1:55 PM 53.1 °F 31.8 °F 44% 30.20 in 10.0 mi North - - N/A   Overcast
2:15 PM 54.5 °F 31.6 °F 42% 30.19 in 10.0 mi North - - N/A   Overcast
2:35 PM 56.5 °F 32.2 °F 40% 30.19 in 10.0 mi North - - N/A   Overcast
2:55 PM 57.0 °F 32.0 °F 39% 30.18 in 10.0 mi North - - N/A   Mostly Cloudy
3:15 PM 56.7 °F 31.8 °F 39% 30.18 in 10.0 mi North - - N/A   Overcast
3:35 PM 55.6 °F 31.8 °F 41% 30.18 in 10.0 mi North - - N/A   Overcast
3:55 PM 55.6 °F 31.8 °F 41% 30.17 in 10.0 mi North - - N/A   Overcast
4:15 PM 56.7 °F 31.8 °F 39% 30.18 in 10.0 mi North - - N/A   Mostly Cloudy
4:35 PM 56.3 °F 31.8 °F 39% 30.17 in 10.0 mi North - - N/A   Scattered Clouds
4:55 PM 54.3 °F 31.8 °F 42% 30.17 in 10.0 mi North - - N/A   Clear
5:15 PM 49.3 °F 33.4 °F 54% 30.16 in 10.0 mi North - - N/A   Clear
5:35 PM 46.8 °F 33.6 °F 60% 30.17 in 10.0 mi North - - N/A   Clear
5:55 PM 44.6 °F 33.8 °F 66% 30.17 in 10.0 mi North - - N/A   Clear
6:15 PM 43.2 °F 33.4 °F 69% 30.17 in 10.0 mi North - - N/A   Clear
6:35 PM 42.1 °F 33.3 °F 71% 30.18 in 10.0 mi North - - N/A   Mostly Cloudy
6:55 PM 40.5 °F 33.1 °F 75% 30.17 in 10.0 mi North - - N/A   Mostly Cloudy
7:15 PM 39.4 °F 32.9 °F 78% 30.18 in 10.0 mi North - - N/A   Mostly Cloudy
7:35 PM 39.9 °F 32.9 °F 76% 30.18 in 10.0 mi North - - N/A   Overcast
7:55 PM 39.4 °F 32.9 °F 78% 30.18 in 10.0 mi North - - N/A   Mostly Cloudy
8:15 PM 38.7 °F 33.1 °F 80% 30.18 in 10.0 mi North - - N/A   Mostly Cloudy
8:35 PM 38.8 °F 33.1 °F 80% 30.19 in 10.0 mi North - - N/A   Overcast
8:55 PM 39.0 °F 33.3 °F 80% 30.20 in 10.0 mi North - - N/A   Overcast
9:15 PM 39.6 °F 33.8 °F 80% 30.20 in 10.0 mi North - - N/A   Overcast
9:35 PM 38.5 °F 33.8 °F 83% 30.18 in 10.0 mi North - - N/A   Overcast
9:55 PM 36.9 °F 32.9 °F 86% 30.19 in 10.0 mi North - - N/A   Scattered Clouds
10:15 PM 35.8 °F 32.2 °F 87% 30.19 in 10.0 mi North - - N/A   Clear
10:35 PM 34.9 °F 32.0 °F 89% 30.20 in 10.0 mi North - - N/A   Scattered Clouds
10:55 PM 35.6 °F 32.2 °F 87% 30.20 in 10.0 mi North - - N/A   Mostly Cloudy
11:15 PM 36.1 °F 32.7 °F 87% 30.20 in 10.0 mi North - - N/A   Overcast
11:35 PM 37.4 °F 33.3 °F 85% 30.20 in 10.0 mi North - - N/A   Overcast
11:55 PM 38.1 °F 33.6 °F 84% 30.20 in 10.0 mi North - - N/A   Overcast